Total_Precipitation_Accumulation
0.00 0.00 0.00 0.00 0.00 0.00 0.00 0.00 0.00 0.00 0.00 0.00 0.00 0.00 0.00 0.00 0.00 0.00 0.00 0.00 0.00 0.00 0.00 0.00 0.04 0.04 0.09 0.06 0.05 0.05 0.06 0.06 0.06 0.06 0.06 0.00 0.00 0.04 0.00 0.00 0.00 0.00 0.00 0.00 0.00 0.00 0.00 0.00 0.00 0.00 0.00 0.00 0.00 0.00 0.00 0.00 0.00 0.00 0.00 0.00 0.00 0.00 0.00 0.00 0.00 0.00 0.16 0.16 0.09 0.09 0.07 0.02 0.00 0.00 0.00 0.00 0.00 0.00 0.00 0.00 0.00 0.00 0.00 0.00 0.00 0.00 0.00 0.00 0.00 0.00 0.00 0.00 0.00 0.00 0.00 0.00 0.00 0.00 0.00 0.00 0.00 0.00 0.00
0.00 0.00 0.00 0.00 0.00 0.00 0.03 0.05 0.03 0.03 0.00 0.00 0.00 0.00 0.00 0.00 0.00 0.00 0.00 0.00 0.00 0.00 0.00 0.11 0.14 0.14 0.06 0.00 0.04 0.04 0.00 0.00 0.07 0.07 0.11 0.10 0.10 0.00 0.00 0.00 0.00 0.00 0.00 0.00 0.00 0.00 0.00 0.00 0.00 0.00 0.00 0.00 0.00 0.00 0.00 0.00 0.00 0.00 0.00 0.00 0.00 0.00 0.00 0.00 0.18 0.18 0.18 0.24 0.08 0.08 0.04 0.00 0.00 0.00 0.00 0.00 0.00 0.00 0.00 0.00 0.00 0.00 0.00 0.00 0.00 0.00 0.00 0.00 0.00 0.00 0.00 0.00 0.00 0.00 0.00 0.00 0.00 0.00 0.00 0.00 0.00 0.00 0.00
0.00 0.00 0.00 0.00 0.00 0.00 0.01 0.03 0.02 0.02 0.01 0.00 0.00 0.00 0.00 0.00 0.00 0.00 0.00 0.00 0.00 0.00 0.00 0.00 0.00 0.00 0.13 0.10 0.01 0.01 0.02 0.00 0.00 0.00 0.05 0.01 0.01 0.00 0.00 0.00 0.00 0.00 0.00 0.00 0.00 0.00 0.00 0.00 0.00 0.00 0.00 0.00 0.00 0.00 0.00 0.00 0.00 0.00 0.00 0.00 0.00 0.00 0.00 0.00 0.00 0.00 0.20 0.19 0.04 0.04 0.05 0.05 0.00 0.00 0.00 0.00 0.00 0.00 0.00 0.00 0.00 0.00 0.00 0.00 0.00 0.00 0.00 0.00 0.00 0.00 0.00 0.00 0.00 0.00 0.00 0.00 0.00 0.00 0.00 0.00 0.00 0.00 0.00
0.00 0.00 0.00 0.00 0.00 0.00 0.00 0.00 0.09 0.09 0.09 0.08 0.05 0.05 0.03 0.00 0.00 0.00 0.00 0.00 0.00 0.00 0.00 0.18 0.16 0.16 0.11 0.10 0.06 0.06 0.00 0.00 0.00 0.00 0.00 0.00 0.00 0.00 0.00 0.00 0.00 0.00 0.00 0.00 0.00 0.00 0.00 0.00 0.00 0.00 0.00 0.00 0.00 0.00 0.00 0.00 0.00 0.00 0.00 0.00 0.00 0.00 0.00 0.00 0.00 0.00 0.23 0.19 0.13 0.13 0.05 0.08 0.00 0.00 0.00 0.00 0.00 0.00 0.00 0.00 0.00 0.00 0.00 0.00 0.00 0.00 0.00 0.00 0.00 0.00 0.00 0.00 0.00 0.00 0.00 0.00 0.00 0.00 0.00 0.00 0.00 0.00 0.00
0.00 0.06 0.00 0.03 0.03 0.03 0.02 0.01 0.00 0.00 0.01 0.00 0.04 0.04 0.04 0.06 0.06 0.07 0.06 0.08 0.08 0.08 0.15 0.15 0.04 0.04 0.00 0.09 0.06 0.06 0.04 0.00 0.00 0.00 0.00 0.00 0.00 0.00 0.00 0.00 0.00 0.00 0.00 0.00 0.00 0.00 0.00 0.00 0.00 0.00 0.00 0.00 0.00 0.00 0.00 0.00 0.00 0.00 0.00 0.00 0.00 0.00 0.00 0.00 0.00 0.00 0.38 0.15 0.11 0.11 0.05 0.14 0.06 0.06 0.00 0.00 0.00 0.00 0.00 0.00 0.00 0.00 0.00 0.00 0.00 0.00 0.00 0.00 0.00 0.00 0.02 0.00 0.00 0.00 0.00 0.00 0.00 0.00 0.00 0.00 0.00 0.00 0.00
0.10 0.03 0.03 0.03 0.03 0.03 0.03 0.03 0.02 0.02 0.02 0.01 0.04 0.04 0.02 0.00 0.00 0.00 0.00 0.10 0.10 0.18 0.09 0.08 0.10 0.10 0.20 0.15 0.17 0.17 0.09 0.10 0.00 0.00 0.00 0.00 0.00 0.00 0.04 0.00 0.00 0.00 0.00 0.00 0.00 0.00 0.00 0.00 0.00 0.00 0.00 0.00 0.00 0.00 0.00 0.00 0.00 0.00 0.00 0.00 0.00 0.00 0.00 0.00 0.00 0.00 0.35 0.25 0.09 0.09 0.06 0.17 0.08 0.08 0.00 0.00 0.00 0.00 0.00 0.00 0.00 0.00 0.00 0.00 0.00 0.00 0.00 0.00 0.00 0.00 0.00 0.00 0.00 0.00 0.00 0.00 0.00 0.00 0.00 0.00 0.00 0.00 0.00
0.10 0.12 0.08 0.05 0.04 0.04 0.06 0.03 0.04 0.04 0.02 0.02 0.00 0.00 0.02 0.00 0.00 0.00 0.00 0.03 0.03 0.15 0.19 0.21 0.15 0.15 0.23 0.17 0.25 0.25 0.07 0.11 0.10 0.10 0.12 0.10 0.10 0.18 0.21 0.12 0.12 0.00 0.00 0.00 0.00 0.00 0.00 0.00 0.00 0.00 0.00 0.00 0.00 0.00 0.00 0.00 0.00 0.00 0.00 0.00 0.00 0.00 0.00 0.00 0.00 0.00 0.51 0.29 0.10 0.10 0.08 0.30 0.10 0.10 0.00 0.00 0.00 0.00 0.00 0.00 0.00 0.00 0.00 0.00 0.00 0.00 0.00 0.00 0.00 0.00 0.00 0.00 0.00 0.00 0.00 0.00 0.00 0.00 0.00 0.00 0.00 0.00 0.00
0.07 0.10 0.08 0.04 0.00 0.00 0.00 0.00 0.01 0.01 0.01 0.00 0.00 0.00 0.00 0.00 0.00 0.00 0.00 0.00 0.00 0.01 0.11 0.20 0.22 0.22 0.19 0.19 0.07 0.07 0.05 0.14 0.17 0.17 0.12 0.09 0.09 0.24 0.23 0.00 0.00 0.05 0.00 0.00 0.00 0.00 0.00 0.00 0.00 0.00 0.00 0.00 0.00 0.00 0.00 0.00 0.00 0.00 0.00 0.00 0.00 0.00 0.00 0.00 0.00 0.00 0.49 0.25 0.27 0.27 0.30 0.32 0.11 0.11 0.00 0.05 0.05 0.00 0.00 0.00 0.00 0.00 0.00 0.00 0.00 0.00 0.00 0.00 0.00 0.00 0.00 0.00 0.00 0.00 0.00 0.00 0.00 0.00 0.00 0.00 0.00 0.00 0.00
0.00 0.00 0.06 0.09 0.04 0.04 0.01 0.00 0.00 0.00 0.00 0.00 0.00 0.00 0.00 0.00 0.00 0.04 0.05 0.03 0.03 0.05 0.09 0.20 0.27 0.27 0.18 0.22 0.21 0.21 0.18 0.05 0.08 0.08 0.12 0.07 0.07 0.02 0.00 0.00 0.00 0.00 0.00 0.00 0.00 0.00 0.00 0.00 0.00 0.00 0.00 0.00 0.00 0.00 0.00 0.00 0.00 0.00 0.00 0.00 0.00 0.00 0.00 0.00 0.00 0.00 0.36 0.21 0.50 0.50 0.24 0.25 0.19 0.19 0.10 0.08 0.08 0.00 0.00 0.00 0.00 0.00 0.00 0.00 0.00 0.00 0.00 0.00 0.00 0.00 0.00 0.00 0.00 0.00 0.00 0.00 0.00 0.00 0.00 0.00 0.00 0.00 0.00
0.00 0.00 0.00 0.00 0.02 0.02 0.02 0.03 0.03 0.03 0.01 0.00 0.00 0.00 0.00 0.00 0.00 0.02 0.04 0.03 0.03 0.03 0.01 0.00 0.20 0.20 0.05 0.15 0.16 0.16 0.23 0.08 0.01 0.01 0.06 0.00 0.00 0.00 0.00 0.00 0.00 0.00 0.00 0.00 0.00 0.00 0.00 0.00 0.00 0.00 0.00 0.00 0.00 0.00 0.00 0.00 0.00 0.00 0.00 0.00 0.00 0.00 0.00 0.00 0.00 0.00 0.60 0.20 0.44 0.44 0.41 0.29 0.19 0.19 0.14 0.08 0.08 0.00 0.00 0.00 0.00 0.00 0.00 0.00 0.00 0.00 0.00 0.00 0.00 0.00 0.00 0.00 0.00 0.00 0.00 0.00 0.00 0.00 0.00 0.00 0.00 0.00 0.00
0.00 0.00 0.00 0.00 0.00 0.00 0.00 0.00 0.01 0.01 0.05 0.00 0.00 0.00 0.00 0.02 0.02 0.07 0.04 0.00 0.00 0.00 0.03 0.00 0.00 0.00 0.00 0.00 0.18 0.18 0.22 0.10 0.03 0.03 0.00 0.00 0.00 0.00 0.00 0.00 0.00 0.00 0.00 0.00 0.00 0.00 0.00 0.00 0.00 0.00 0.00 0.00 0.00 0.00 0.00 0.00 0.00 0.00 0.00 0.00 0.00 0.00 0.00 0.00 0.00 0.00 0.46 0.12 0.44 0.44 0.45 0.36 0.16 0.16 0.08 0.09 0.09 0.00 0.00 0.00 0.00 0.00 0.00 0.00 0.00 0.00 0.00 0.00 0.00 0.00 0.00 0.00 0.00 0.00 0.00 0.00 0.00 0.00 0.00 0.00 0.00 0.00 0.00
0.00 0.00 0.00 0.00 0.00 0.00 0.00 0.00 0.00 0.00 0.00 0.07 0.04 0.04 0.00 0.01 0.01 0.00 0.02 0.02 0.02 0.00 0.00 0.00 0.00 0.00 0.00 0.00 0.03 0.03 0.08 0.10 0.04 0.04 0.03 0.00 0.00 0.00 0.00 0.00 0.00 0.00 0.00 0.00 0.00 0.00 0.00 0.00 0.00 0.00 0.00 0.00 0.00 0.00 0.00 0.00 0.00 0.00 0.00 0.00 0.00 0.00 0.00 0.00 0.00 0.00 0.27 0.14 0.12 0.12 0.56 0.37 0.15 0.15 0.07 0.13 0.13 0.05 0.00 0.00 0.00 0.00 0.00 0.00 0.00 0.00 0.00 0.00 0.00 0.00 0.00 0.00 0.00 0.00 0.00 0.00 0.00 0.00 0.00 0.00 0.00 0.00 0.00
0.00 0.00 0.00 0.00 0.00 0.00 0.00 0.00 0.00 0.00 0.00 0.00 0.02 0.02 0.00 0.00 0.00 0.00 0.00 0.00 0.00 0.00 0.00 0.00 0.00 0.00 0.00 0.00 0.00 0.00 0.00 0.04 0.05 0.05 0.00 0.00 0.00 0.00 0.00 0.00 0.00 0.00 0.00 0.00 0.00 0.00 0.00 0.00 0.00 0.00 0.00 0.00 0.00 0.00 0.00 0.00 0.00 0.00 0.00 0.00 0.00 0.00 0.00 0.00 0.00 0.00 0.45 0.24 0.11 0.11 0.68 0.21 0.19 0.19 0.04 0.18 0.18 0.18 0.00 0.00 0.00 0.00 0.00 0.00 0.00 0.00 0.00 0.00 0.00 0.00 0.00 0.00 0.00 0.00 0.00 0.00 0.00 0.00 0.00 0.00 0.00 0.00 0.00
0.00 0.00 0.00 0.00 0.00 0.00 0.00 0.00 0.00 0.00 0.00 0.00 0.00 0.00 0.00 0.00 0.00 0.00 0.00 0.00 0.00 0.00 0.00 0.00 0.00 0.00 0.00 0.00 0.00 0.00 0.00 0.00 0.00 0.00 0.00 0.00 0.00 0.00 0.00 0.00 0.00 0.00 0.00 0.00 0.00 0.00 0.00 0.00 0.00 0.00 0.00 0.00 0.00 0.00 0.00 0.00 0.00 0.00 0.00 0.00 0.00 0.00 0.00 0.00 0.00 0.00 0.30 0.07 0.28 0.28 0.45 0.16 0.24 0.24 0.33 0.11 0.11 0.09 0.00 0.00 0.00 0.00 0.00 0.00 0.00 0.00 0.00 0.00 0.00 0.00 0.00 0.00 0.00 0.00 0.00 0.00 0.00 0.00 0.00 0.00 0.00 0.00 0.00
0.00 0.00 0.00 0.00 0.00 0.00 0.00 0.00 0.00 0.00 0.00 0.00 0.00 0.00 0.00 0.00 0.00 0.00 0.00 0.00 0.00 0.00 0.00 0.00 0.00 0.00 0.00 0.00 0.00 0.00 0.00 0.00 0.00 0.00 0.00 0.00 0.00 0.00 0.00 0.00 0.00 0.00 0.00 0.00 0.00 0.00 0.00 0.00 0.00 0.00 0.00 0.00 0.00 0.00 0.00 0.00 0.00 0.00 0.00 0.00 0.00 0.00 0.00 0.00 0.00 0.00 0.26 0.40 0.34 0.34 0.16 0.08 0.25 0.25 0.27 0.08 0.08 0.06 0.05 0.00 0.00 0.00 0.00 0.00 0.00 0.00 0.00 0.00 0.00 0.00 0.00 0.00 0.00 0.00 0.00 0.00 0.00 0.00 0.00 0.00 0.00 0.00 0.00
0.00 0.00 0.00 0.00 0.00 0.00 0.00 0.00 0.00 0.00 0.00 0.00 0.00 0.00 0.00 0.00 0.00 0.00 0.00 0.00 0.00 0.00 0.01 0.01 0.01 0.01 0.00 0.00 0.00 0.00 0.00 0.00 0.00 0.00 0.00 0.00 0.00 0.00 0.00 0.00 0.00 0.00 0.00 0.00 0.00 0.00 0.00 0.00 0.00 0.00 0.00 0.00 0.00 0.00 0.00 0.01 0.01 0.00 0.00 0.00 0.00 0.00 0.00 0.00 0.00 0.00 0.47 0.48 0.43 0.43 0.27 0.11 0.31 0.31 0.25 0.19 0.19 0.04 0.04 0.00 0.00 0.00 0.00 0.00 0.00 0.00 0.00 0.00 0.00 0.00 0.00 0.00 0.00 0.00 0.00 0.00 0.00 0.00 0.00 0.00 0.00 0.00 0.00
0.00 0.00 0.00 0.00 0.00 0.00 0.00 0.00 0.00 0.00 0.00 0.00 0.00 0.00 0.00 0.00 0.00 0.00 0.00 0.00 0.00 0.00 0.00 0.00 0.00 0.00 0.00 0.00 0.00 0.00 0.00 0.00 0.00 0.00 0.00 0.00 0.00 0.00 0.00 0.00 0.00 0.00 0.00 0.00 0.00 0.00 0.00 0.00 0.00 0.00 0.00 0.00 0.00 0.00 0.00 0.00 0.00 0.00 0.00 0.00 0.00 0.00 0.00 0.00 0.00 0.00 0.23 0.41 0.28 0.28 0.12 0.15 0.12 0.12 0.20 0.18 0.18 0.00 0.00 0.00 0.00 0.00 0.00 0.00 0.00 0.00 0.00 0.00 0.00 0.00 0.00 0.00 0.00 0.00 0.00 0.00 0.00 0.00 0.00 0.00 0.00 0.00 0.00
0.00 0.00 0.00 0.00 0.00 0.00 0.00 0.00 0.00 0.00 0.00 0.00 0.00 0.00 0.00 0.00 0.00 0.00 0.00 0.00 0.00 0.00 0.00 0.00 0.00 0.00 0.00 0.00 0.00 0.00 0.00 0.00 0.00 0.00 0.00 0.00 0.00 0.00 0.00 0.00 0.00 0.00 0.00 0.00 0.00 0.00 0.00 0.00 0.00 0.00 0.00 0.00 0.00 0.00 0.00 0.00 0.00 0.00 0.00 0.00 0.00 0.00 0.00 0.00 0.00 0.00 0.23 0.47 0.21 0.21 0.11 0.21 0.18 0.18 0.19 0.10 0.10 0.00 0.00 0.00 0.00 0.00 0.00 0.00 0.00 0.00 0.00 0.00 0.00 0.00 0.00 0.00 0.00 0.00 0.00 0.00 0.00 0.00 0.00 0.00 0.00 0.00 0.00
0.00 0.00 0.00 0.00 0.00 0.00 0.00 0.00 0.00 0.00 0.00 0.00 0.00 0.00 0.00 0.00 0.00 0.00 0.00 0.00 0.00 0.00 0.00 0.00 0.00 0.00 0.00 0.00 0.00 0.00 0.00 0.00 0.00 0.00 0.00 0.00 0.00 0.00 0.00 0.00 0.00 0.00 0.00 0.00 0.00 0.00 0.00 0.00 0.00 0.00 0.00 0.00 0.00 0.00 0.00 0.00 0.00 0.00 0.00 0.00 0.00 0.00 0.00 0.00 0.00 0.00 0.21 0.49 0.24 0.24 0.60 0.53 0.28 0.28 0.17 0.11 0.11 0.06 0.00 0.00 0.00 0.00 0.00 0.00 0.00 0.00 0.00 0.00 0.00 0.00 0.00 0.00 0.00 0.00 0.00 0.00 0.00 0.00 0.00 0.00 0.00 0.00 0.00
0.05 0.07 0.06 0.03 0.08 0.08 0.10 0.10 0.04 0.04 0.00 0.00 0.00 0.00 0.00 0.00 0.00 0.00 0.09 0.14 0.14 0.09 0.00 0.00 0.00 0.00 0.00 0.00 0.00 0.00 0.00 0.00 0.00 0.00 0.00 0.00 0.00 0.00 0.00 0.00 0.00 0.00 0.00 0.00 0.00 0.00 0.00 0.00 0.00 0.00 0.00 0.00 0.00 0.00 0.00 0.00 0.00 0.00 0.00 0.00 0.00 0.00 0.00 0.00 0.00 0.00 0.00 0.53 0.45 0.45 0.40 0.31 0.30 0.30 0.18 0.23 0.23 0.10 0.03 0.00 0.00 0.00 0.00 0.00 0.00 0.00 0.00 0.00 0.00 0.00 0.00 0.00 0.00 0.00 0.00 0.00 0.00 0.00 0.00 0.00 0.00 0.00 0.00
0.07 0.05 0.05 0.04 0.01 0.01 0.01 0.02 0.03 0.03 0.03 0.02 0.02 0.02 0.01 0.01 0.01 0.00 0.00 0.00 0.00 0.00 0.00 0.00 0.00 0.00 0.00 0.00 0.00 0.00 0.00 0.00 0.00 0.00 0.00 0.00 0.00 0.00 0.00 0.00 0.00 0.00 0.00 0.00 0.00 0.00 0.00 0.00 0.00 0.00 0.00 0.00 0.00 0.00 0.00 0.00 0.00 0.00 0.00 0.00 0.00 0.00 0.00 0.00 0.00 0.00 0.00 0.00 0.57 0.57 0.34 0.29 0.32 0.32 0.25 0.19 0.19 0.06 0.11 0.00 0.00 0.00 0.00 0.00 0.00 0.00 0.00 0.00 0.00 0.00 0.00 0.00 0.00 0.00 0.00 0.00 0.00 0.00 0.00 0.00 0.00 0.00 0.00
0.48 0.52 0.42 0.34 0.31 0.31 0.29 0.08 0.04 0.04 0.02 0.02 0.02 0.02 0.01 0.01 0.01 0.00 0.00 0.01 0.01 0.00 0.00 0.00 0.00 0.00 0.00 0.00 0.00 0.00 0.00 0.00 0.00 0.00 0.00 0.00 0.00 0.00 0.00 0.00 0.00 0.00 0.00 0.00 0.00 0.00 0.00 0.00 0.00 0.00 0.00 0.00 0.00 0.00 0.00 0.00 0.00 0.00 0.00 0.00 0.00 0.00 0.00 0.00 0.00 0.00 0.00 0.00 0.58 0.58 0.33 0.26 0.27 0.27 0.27 0.27 0.27 0.09 0.09 0.03 0.03 0.00 0.00 0.00 0.00 0.00 0.00 0.00 0.00 0.00 0.00 0.00 0.00 0.00 0.00 0.00 0.00 0.00 0.00 0.00 0.00 0.00 0.00
0.00 0.01 0.02 0.06 0.07 0.07 0.10 0.18 0.16 0.16 0.14 0.07 0.06 0.06 0.06 0.11 0.11 0.09 0.07 0.03 0.03 0.00 0.00 0.00 0.00 0.00 0.00 0.00 0.00 0.00 0.00 0.00 0.00 0.00 0.00 0.00 0.00 0.00 0.00 0.00 0.00 0.00 0.00 0.00 0.00 0.00 0.00 0.00 0.00 0.00 0.00 0.00 0.00 0.00 0.00 0.00 0.00 0.00 0.00 0.00 0.00 0.00 0.00 0.00 0.00 0.00 0.00 0.00 0.00 0.00 0.50 0.20 0.19 0.19 0.26 0.28 0.28 0.09 0.16 0.07 0.07 0.00 0.00 0.00 0.00 0.00 0.00 0.00 0.00 0.00 0.00 0.00 0.00 0.00 0.00 0.00 0.00 0.00 0.00 0.00 0.00 0.00 0.00
0.08 0.11 0.07 0.10 0.19 0.19 0.53 0.37 0.20 0.20 0.16 0.18 0.24 0.24 0.21 0.19 0.19 0.15 0.07 0.03 0.03 0.01 0.00 0.00 0.00 0.00 0.00 0.00 0.00 0.00 0.00 0.00 0.00 0.00 0.00 0.00 0.00 0.00 0.00 0.00 0.00 0.00 0.00 0.00 0.00 0.00 0.00 0.00 0.00 0.00 0.00 0.00 0.00 0.00 0.00 0.00 0.00 0.00 0.00 0.00 0.00 0.00 0.00 0.00 0.00 0.00 0.00 0.00 0.00 0.00 0.51 0.24 0.08 0.08 0.55 0.27 0.27 0.17 0.15 0.03 0.03 0.00 0.00 0.00 0.00 0.00 0.00 0.00 0.00 0.00 0.00 0.00 0.00 0.00 0.00 0.00 0.00 0.00 0.00 0.00 0.00 0.00 0.00
0.51 0.53 0.76 0.78 0.77 0.77 0.81 0.89 0.82 0.82 0.76 0.40 0.26 0.26 0.22 0.12 0.12 0.07 0.01 0.01 0.01 0.00 0.00 0.00 0.00 0.00 0.00 0.00 0.00 0.00 0.00 0.00 0.00 0.00 0.00 0.00 0.00 0.00 0.00 0.00 0.00 0.00 0.00 0.00 0.00 0.00 0.00 0.00 0.00 0.00 0.00 0.00 0.00 0.00 0.00 0.00 0.00 0.00 0.00 0.00 0.00 0.00 0.00 0.00 0.00 0.00 0.00 0.00 0.32 0.32 0.99 0.79 0.57 0.57 0.62 0.45 0.45 0.22 0.28 0.06 0.06 0.00 0.00 0.00 0.00 0.00 0.00 0.00 0.00 0.00 0.00 0.00 0.00 0.00 0.00 0.00 0.00 0.00 0.00 0.00 0.00 0.00 0.00
0.18 0.23 0.30 0.35 0.06 0.06 0.06 0.12 0.22 0.22 0.22 0.19 0.13 0.13 0.07 0.04 0.04 0.03 0.02 0.03 0.03 0.03 0.00 0.00 0.00 0.00 0.00 0.00 0.00 0.00 0.00 0.00 0.00 0.00 0.00 0.00 0.00 0.00 0.00 0.00 0.00 0.00 0.00 0.00 0.00 0.00 0.00 0.00 0.00 0.00 0.00 0.00 0.00 0.00 0.00 0.00 0.00 0.00 0.00 0.00 0.00 0.00 0.00 0.00 0.00 0.00 0.00 0.00 0.10 0.10 0.10 0.69 0.78 0.78 0.39 0.35 0.35 0.44 0.35 0.24 0.24 0.00 0.00 0.00 0.00 0.00 0.00 0.00 0.00 0.00 0.00 0.00 0.00 0.00 0.00 0.00 0.00 0.00 0.00 0.00 0.00 0.00 0.00
0.31 0.12 0.04 0.01 0.00 0.00 0.01 0.01 0.02 0.02 0.03 0.06 0.10 0.10 0.11 0.05 0.05 0.01 0.01 0.07 0.07 0.07 0.06 0.08 0.03 0.03 0.06 0.02 0.01 0.01 0.00 0.00 0.01 0.01 0.01 0.01 0.01 0.01 0.00 0.00 0.00 0.00 0.00 0.00 0.00 0.00 0.00 0.00 0.00 0.00 0.00 0.00 0.00 0.00 0.00 0.00 0.00 0.00 0.00 0.00 0.00 0.00 0.00 0.00 0.03 0.03 0.00 0.00 0.03 0.03 0.04 0.31 0.65 0.65 0.42 0.13 0.13 0.27 0.28 0.22 0.22 0.14 0.00 0.00 0.00 0.00 0.00 0.00 0.00 0.00 0.00 0.00 0.00 0.00 0.00 0.00 0.00 0.00 0.00 0.00 0.00 0.00 0.00
0.05 0.03 0.02 0.02 0.01 0.01 0.00 0.00 0.00 0.00 0.01 0.01 0.03 0.03 0.07 0.06 0.06 0.06 0.03 0.02 0.02 0.01 0.00 0.00 0.00 0.00 0.00 0.00 0.00 0.00 0.00 0.00 0.00 0.00 0.00 0.00 0.00 0.00 0.00 0.00 0.00 0.00 0.00 0.00 0.00 0.00 0.00 0.01 0.00 0.00 0.00 0.00 0.00 0.00 0.00 0.00 0.00 0.00 0.00 0.00 0.00 0.00 0.00 0.00 0.01 0.01 0.03 0.00 0.02 0.02 0.03 0.10 0.34 0.34 0.38 0.19 0.19 0.13 0.00 0.13 0.13 0.09 0.05 0.00 0.00 0.00 0.00 0.00 0.00 0.00 0.00 0.00 0.00 0.00 0.00 0.00 0.00 0.00 0.00 0.00 0.00 0.00 0.00
0.02 0.02 0.02 0.01 0.00 0.00 0.00 0.00 0.00 0.00 0.00 0.00 0.00 0.00 0.01 0.01 0.01 0.01 0.06 0.07 0.07 0.10 0.05 0.00 0.00 0.00 0.00 0.00 0.01 0.01 0.01 0.03 0.02 0.02 0.00 0.00 0.00 0.00 0.00 0.00 0.00 0.00 0.00 0.00 0.00 0.00 0.00 0.02 0.00 0.00 0.00 0.00 0.00 0.00 0.00 0.00 0.00 0.00 0.00 0.00 0.00 0.00 0.00 0.00 0.00 0.00 0.00 0.02 0.01 0.01 0.02 0.01 0.64 0.64 0.57 0.38 0.38 0.18 0.30 0.00 0.00 0.11 0.06 0.00 0.00 0.00 0.00 0.00 0.00 0.00 0.00 0.00 0.00 0.00 0.00 0.00 0.00 0.00 0.00 0.00 0.00 0.00 0.00
0.02 0.00 0.00 0.00 0.00 0.00 0.00 0.00 0.00 0.00 0.00 0.00 0.00 0.00 0.00 0.01 0.01 0.07 0.04 0.06 0.06 0.05 0.04 0.02 0.00 0.00 0.00 0.00 0.01 0.01 0.01 0.01 0.01 0.01 0.01 0.01 0.01 0.01 0.01 0.00 0.00 0.00 0.00 0.00 0.00 0.00 0.00 0.01 0.05 0.05 0.01 0.04 0.00 0.00 0.00 0.00 0.00 0.00 0.00 0.00 0.00 0.00 0.00 0.00 0.00 0.00 0.00 0.01 0.00 0.00 0.02 0.03 0.55 0.55 0.45 0.51 0.51 0.30 0.23 0.32 0.32 0.00 0.00 0.00 0.00 0.00 0.00 0.00 0.00 0.00 0.00 0.00 0.00 0.00 0.00 0.00 0.00 0.00 0.00 0.00 0.00 0.00 0.00
0.01 0.00 0.00 0.00 0.00 0.00 0.00 0.00 0.00 0.00 0.00 0.00 0.00 0.00 0.00 0.00 0.00 0.00 0.00 0.02 0.02 0.02 0.01 0.00 0.00 0.00 0.00 0.03 0.03 0.03 0.04 0.04 0.02 0.02 0.02 0.01 0.01 0.02 0.01 0.01 0.01 0.00 0.00 0.00 0.00 0.00 0.00 0.00 0.02 0.02 0.05 0.07 0.06 0.06 0.00 0.00 0.00 0.00 0.00 0.00 0.00 0.00 0.00 0.00 0.00 0.00 0.00 0.00 0.00 0.00 0.02 0.32 0.33 0.33 0.37 0.37 0.37 0.39 0.26 0.28 0.28 0.49 0.49 0.08 0.00 0.00 0.00 0.00 0.00 0.00 0.00 0.00 0.00 0.00 0.00 0.00 0.00 0.00 0.00 0.00 0.00 0.00 0.00
0.00 0.00 0.00 0.00 0.00 0.00 0.01 0.02 0.00 0.00 0.00 0.00 0.01 0.01 0.00 0.00 0.00 0.02 0.01 0.01 0.01 0.01 0.02 0.06 0.05 0.05 0.03 0.00 0.00 0.00 0.01 0.01 0.04 0.04 0.03 0.02 0.02 0.02 0.02 0.02 0.02 0.01 0.01 0.00 0.00 0.00 0.00 0.00 0.00 0.00 0.03 0.06 0.05 0.05 0.03 0.00 0.00 0.00 0.00 0.00 0.00 0.00 0.00 0.00 0.00 0.00 0.00 0.00 0.00 0.00 0.01 0.31 0.34 0.34 0.34 0.52 0.52 0.46 0.45 0.61 0.61 0.21 0.44 0.52 0.35 0.35 0.27 0.00 0.00 0.00 0.00 0.00 0.00 0.00 0.00 0.00 0.00 0.00 0.00 0.00 0.00 0.00 0.00
0.02 0.01 0.00 0.00 0.00 0.00 0.00 0.03 0.02 0.02 0.02 0.01 0.00 0.00 0.01 0.00 0.00 0.00 0.00 0.00 0.00 0.00 0.00 0.00 0.00 0.00 0.00 0.00 0.00 0.00 0.00 0.00 0.01 0.01 0.01 0.02 0.02 0.00 0.00 0.00 0.00 0.00 0.00 0.00 0.00 0.00 0.00 0.00 0.00 0.00 0.00 0.02 0.05 0.05 0.06 0.00 0.00 0.00 0.00 0.00 0.00 0.00 0.00 0.00 0.00 0.00 0.00 0.00 0.00 0.00 0.00 0.07 0.29 0.29 0.36 0.44 0.44 0.50 0.58 0.65 0.65 0.56 0.65 0.53 0.33 0.33 0.08 0.09 0.00 0.00 0.00 0.00 0.00 0.00 0.00 0.00 0.00 0.00 0.00 0.00 0.00 0.00 0.00
0.00 0.01 0.01 0.00 0.00 0.00 0.00 0.00 0.00 0.00 0.01 0.01 0.00 0.00 0.00 0.00 0.00 0.00 0.00 0.00 0.00 0.00 0.00 0.00 0.00 0.00 0.00 0.00 0.00 0.00 0.00 0.00 0.00 0.00 0.00 0.00 0.00 0.00 0.00 0.00 0.00 0.00 0.00 0.00 0.00 0.00 0.00 0.02 0.00 0.00 0.03 0.00 0.02 0.02 0.07 0.07 0.07 0.03 0.00 0.00 0.00 0.00 0.00 0.00 0.00 0.00 0.00 0.00 0.00 0.00 0.00 0.00 0.24 0.24 0.30 0.43 0.43 0.49 0.42 0.49 0.49 0.42 0.45 0.42 0.48 0.48 0.35 0.26 0.31 0.31 0.01 0.01 0.00 0.00 0.00 0.00 0.00 0.00 0.00 0.00 0.00 0.00 0.00
0.00 0.00 0.00 0.00 0.00 0.00 0.00 0.00 0.00 0.00 0.00 0.00 0.00 0.00 0.00 0.00 0.00 0.00 0.00 0.00 0.00 0.00 0.00 0.00 0.00 0.00 0.00 0.00 0.00 0.00 0.00 0.00 0.00 0.00 0.01 0.01 0.01 0.00 0.00 0.00 0.00 0.00 0.00 0.00 0.00 0.00 0.00 0.00 0.04 0.04 0.10 0.07 0.00 0.00 0.02 0.06 0.06 0.09 0.10 0.00 0.00 0.00 0.00 0.00 0.00 0.00 0.00 0.00 0.00 0.00 0.01 0.00 0.01 0.01 0.28 0.37 0.37 0.38 0.27 0.38 0.38 0.35 0.27 0.35 0.36 0.36 0.42 0.33 0.20 0.20 0.33 0.03 0.01 0.01 0.00 0.00 0.00 0.00 0.00 0.00 0.00 0.00 0.00
0.00 0.00 0.00 0.00 0.00 0.00 0.00 0.00 0.00 0.00 0.00 0.00 0.00 0.00 0.00 0.01 0.01 0.01 0.02 0.00 0.00 0.00 0.00 0.00 0.00 0.00 0.00 0.01 0.02 0.02 0.02 0.04 0.04 0.04 0.01 0.01 0.01 0.00 0.00 0.00 0.00 0.00 0.00 0.00 0.00 0.00 0.00 0.00 0.01 0.01 0.09 0.08 0.03 0.03 0.00 0.05 0.05 0.06 0.10 0.06 0.06 0.00 0.00 0.00 0.00 0.00 0.00 0.00 0.00 0.00 0.00 0.02 0.02 0.02 0.01 0.39 0.39 0.34 0.27 0.17 0.17 0.22 0.26 0.27 0.34 0.34 0.37 0.41 0.25 0.25 0.19 0.17 0.05 0.05 0.01 -0.00 -0.00 0.00 0.00 0.00 0.00 0.00 0.00
0.01 0.00 0.00 0.00 0.00 0.00 0.00 0.00 0.00 0.00 0.00 0.00 0.00 0.00 0.03 0.05 0.05 0.10 0.12 0.04 0.04 0.03 0.02 0.01 0.01 0.01 0.10 0.10 0.08 0.08 0.05 0.06 0.05 0.05 0.03 0.02 0.02 0.02 0.01 0.00 0.00 0.00 0.00 0.00 0.00 0.00 0.00 0.00 0.00 0.00 0.00 0.05 0.03 0.03 0.02 0.01 0.01 0.03 0.03 0.02 0.02 0.00 0.01 0.00 0.00 0.00 0.00 0.00 0.00 0.00 0.00 0.00 0.00 0.00 0.01 0.01 0.01 0.40 0.35 0.23 0.23 0.14 0.25 0.38 0.52 0.52 0.40 0.41 0.34 0.34 0.20 0.20 0.11 0.11 0.04 0.00 0.00 0.00 0.00 0.00 0.00 0.00 0.00
0.01 0.00 0.00 0.00 0.00 0.00 0.00 0.00 0.00 0.00 0.00 0.00 0.00 0.00 0.00 0.02 0.02 0.09 0.17 0.18 0.18 0.20 0.17 0.08 0.11 0.11 0.07 0.16 0.15 0.15 0.10 0.19 0.23 0.23 0.11 0.10 0.10 0.03 0.03 0.01 0.01 0.00 0.00 0.00 0.00 0.00 0.00 0.00 0.00 0.00 0.00 0.00 0.02 0.02 0.02 0.08 0.08 0.07 0.03 0.03 0.03 0.06 0.11 0.04 0.00 0.00 0.00 0.00 0.00 0.00 0.00 0.00 0.00 0.00 0.00 0.00 0.00 0.13 0.37 0.31 0.31 0.26 0.22 0.22 0.48 0.48 0.41 0.36 0.32 0.32 0.30 0.19 0.12 0.12 0.08 -0.00 -0.00 0.00 0.00 0.00 0.00 0.00 0.00
0.01 0.01 0.00 0.00 0.00 0.00 0.00 0.00 0.00 0.00 0.00 0.00 0.00 0.00 0.00 0.00 0.00 0.00 0.01 0.04 0.04 0.12 0.15 0.18 0.09 0.09 0.12 0.17 0.24 0.24 0.18 0.17 0.18 0.18 0.15 0.30 0.30 0.32 0.13 0.08 0.08 0.08 0.09 0.07 0.04 0.04 0.03 0.02 0.00 0.00 0.01 0.00 0.00 0.00 0.00 0.01 0.01 0.12 0.09 0.02 0.02 0.11 0.16 0.15 0.07 0.07 0.00 0.00 0.00 0.00 0.00 0.00 0.00 0.00 0.00 0.00 0.00 0.01 0.26 0.32 0.32 0.28 0.30 0.26 0.28 0.28 0.33 0.46 0.29 0.29 0.28 0.36 0.13 0.13 0.10 0.03 0.03 0.00 0.00 0.00 0.00 0.00 0.00
0.00 0.01 0.00 0.00 0.00 0.00 0.00 0.00 0.00 0.00 0.00 0.00 0.00 0.00 0.00 0.00 0.00 0.00 0.00 0.00 0.00 0.00 0.00 0.02 0.01 0.01 0.01 0.01 0.07 0.07 0.09 0.15 0.16 0.16 0.10 0.13 0.13 0.29 0.39 0.23 0.23 0.12 0.34 0.21 0.08 0.08 0.06 0.05 0.08 0.08 0.07 0.06 0.03 0.03 0.00 0.01 0.01 0.02 0.09 0.08 0.08 0.01 0.08 0.18 0.16 0.16 0.01 0.01 0.00 0.00 0.00 0.00 0.00 0.00 0.00 0.00 0.00 0.00 0.01 0.30 0.30 0.32 0.28 0.27 0.23 0.23 0.33 0.50 0.30 0.30 0.27 0.39 0.32 0.32 0.13 0.08 0.08 -0.00 0.00 0.00 0.00 0.00 0.00
0.00 0.00 0.00 0.00 0.00 0.00 0.00 0.00 0.00 0.00 0.00 0.00 0.00 0.00 0.00 0.00 0.00 0.00 0.00 0.00 0.00 0.00 0.00 0.00 0.01 0.01 0.01 0.01 0.01 0.01 0.01 0.02 0.04 0.04 0.02 0.03 0.03 0.04 0.08 0.31 0.31 0.41 0.61 0.55 0.33 0.33 0.14 0.10 0.10 0.10 0.06 0.07 0.08 0.08 0.07 0.05 0.05 0.01 0.01 0.09 0.09 0.05 0.02 0.09 0.19 0.19 0.13 0.04 0.00 0.00 0.00 0.00 0.02 0.02 0.01 0.01 0.01 0.00 0.00 0.11 0.11 0.22 0.07 0.17 0.27 0.27 0.22 0.31 0.36 0.36 0.38 0.41 0.35 0.35 0.37 0.15 0.15 0.02 0.00 0.01 0.01 0.00 0.00
0.00 0.00 0.00 0.00 0.00 0.00 0.00 0.00 0.00 0.00 0.00 0.00 0.00 0.00 0.00 0.00 0.00 0.00 0.00 0.00 0.00 0.00 -0.00 0.00 0.00 0.00 0.01 0.01 0.01 0.01 0.01 0.01 0.01 0.01 0.01 0.01 0.01 0.01 0.01 0.03 0.03 0.20 0.31 0.47 0.59 0.59 0.23 0.16 0.14 0.14 0.11 0.07 0.10 0.10 0.10 0.07 0.07 0.05 0.03 0.04 0.04 0.05 0.03 0.02 0.12 0.12 0.19 0.17 0.02 0.02 0.00 0.01 0.01 0.01 0.01 0.01 0.01 0.02 0.00 0.08 0.08 0.10 0.05 0.05 0.18 0.18 0.21 0.26 0.34 0.34 0.35 0.45 0.44 0.44 0.41 0.33 0.33 0.11 0.04 0.06 0.06 0.01 0.00
0.01 0.00 0.00 0.00 0.00 0.00 0.00 0.00 0.00 0.00 0.00 0.00 0.00 0.00 0.00 0.00 0.00 0.00 0.00 0.00 0.00 0.00 0.00 0.00 0.00 0.00 0.00 0.01 0.01 0.01 0.01 0.01 0.01 0.01 0.01 0.01 0.01 0.01 0.01 0.01 0.01 0.01 0.04 0.04 0.07 0.07 0.22 0.36 0.43 0.43 0.39 0.25 0.09 0.09 0.08 0.10 0.10 0.07 0.05 0.04 0.04 0.01 0.01 0.01 0.01 0.01 0.01 0.01 0.04 0.04 0.10 0.00 0.00 0.00 0.00 0.02 0.02 0.02 0.02 0.02 0.02 0.17 0.21 0.14 0.08 0.08 0.12 0.37 0.61 0.61 0.49 0.54 0.52 0.52 0.45 0.40 0.40 0.25 0.24 0.13 0.13 0.04 0.01
0.00 0.00 0.00 0.00 0.00 0.00 0.00 0.00 0.00 0.00 0.00 0.00 0.00 0.00 0.00 0.00 0.00 0.00 0.00 0.00 0.00 0.00 0.01 0.00 0.00 0.00 0.00 0.01 0.02 0.02 0.03 0.02 0.01 0.01 0.02 0.01 0.01 0.01 0.00 0.01 0.01 0.01 0.00 0.01 0.01 0.01 0.06 0.19 0.30 0.30 0.44 0.51 0.38 0.38 0.13 0.17 0.17 0.13 0.03 0.01 0.01 0.04 0.02 0.01 0.01 0.01 0.00 0.00 0.00 0.00 0.04 0.08 0.08 0.08 0.00 0.00 0.00 0.02 0.02 0.01 0.01 0.03 0.02 0.09 0.09 0.09 0.07 0.31 0.43 0.43 0.48 0.56 0.49 0.49 0.41 0.35 0.35 0.21 0.19 0.16 0.16 0.09 0.03
0.00 0.00 0.00 0.00 0.00 0.00 0.00 0.00 0.00 0.00 0.00 0.00 0.00 0.00 0.00 0.00 0.00 0.00 0.00 0.01 0.01 0.01 0.01 0.02 0.03 0.03 0.02 0.00 0.00 0.00 0.01 0.01 0.03 0.03 0.03 0.04 0.04 0.01 0.00 0.00 0.00 0.01 0.03 0.01 0.02 0.02 0.05 0.11 0.17 0.17 0.24 0.38 0.45 0.45 0.28 0.26 0.26 0.16 0.11 0.03 0.03 0.05 0.04 0.02 0.01 0.01 0.01 0.00 0.00 0.00 0.00 0.00 0.09 0.09 0.09 0.00 0.00 0.00 0.01 0.01 0.01 0.02 0.02 0.01 0.06 0.06 0.02 0.02 0.26 0.26 0.33 0.39 0.42 0.42 0.45 0.37 0.37 0.32 0.12 0.09 0.09 0.10 0.11
0.00 0.00 0.00 0.00 0.00 0.00 0.00 0.00 0.00 0.00 0.00 0.00 0.00 0.00 0.00 0.00 0.00 0.00 0.00 0.01 0.01 0.01 0.01 0.01 0.02 0.02 0.03 0.03 0.06 0.06 0.02 0.06 0.07 0.07 0.05 0.04 0.04 0.02 0.03 0.01 0.01 0.01 0.03 0.03 0.03 0.03 0.11 0.17 0.21 0.21 0.22 0.20 0.29 0.29 0.21 0.23 0.23 0.16 0.11 0.05 0.05 0.13 0.11 0.07 0.03 0.03 0.07 0.02 0.01 0.01 0.00 0.01 0.00 0.00 0.06 0.06 0.06 0.03 0.00 0.01 0.01 0.01 0.01 0.01 0.01 0.01 0.04 0.06 0.16 0.16 0.40 0.48 0.40 0.40 0.38 0.38 0.38 0.38 0.27 0.17 0.17 0.09 0.09
0.00 0.00 0.00 0.00 0.00 0.00 0.00 0.01 0.00 0.00 0.00 0.00 0.00 0.00 0.00 0.00 0.00 0.00 0.00 0.00 0.00 0.00 0.00 0.00 0.01 0.01 0.02 0.04 0.08 0.08 0.12 0.12 0.10 0.10 0.05 0.03 0.03 0.03 0.01 0.01 0.01 0.01 0.02 0.02 0.03 0.03 0.08 0.17 0.20 0.20 0.26 0.24 0.20 0.20 0.18 0.15 0.15 0.16 0.15 0.12 0.12 0.21 0.21 0.18 0.18 0.18 0.18 0.18 0.16 0.16 0.04 0.03 0.01 0.01 0.01 0.02 0.02 0.02 0.00 0.01 0.01 0.01 0.06 0.06 0.05 0.05 0.10 0.10 0.28 0.28 0.11 0.46 0.43 0.43 0.37 0.39 0.39 0.40 0.32 0.30 0.30 0.26 0.16
0.00 0.00 0.00 0.00 0.00 0.00 0.00 0.00 0.00 0.00 0.00 0.00 0.00 0.00 0.00 0.00 0.00 0.00 0.00 0.00 0.00 0.00 0.00 0.00 0.01 0.01 0.00 0.00 0.00 0.00 0.06 0.01 0.02 0.02 0.06 0.05 0.05 0.03 0.01 0.01 0.01 0.01 0.02 0.02 0.02 0.02 0.04 0.12 0.21 0.21 0.19 0.22 0.27 0.27 0.17 0.17 0.17 0.22 0.16 0.15 0.15 0.22 0.22 0.25 0.24 0.24 0.25 0.26 0.25 0.25 0.16 0.10 0.07 0.07 0.05 0.02 0.02 0.04 0.06 0.02 0.02 0.02 0.04 0.08 0.07 0.07 0.09 0.13 0.11 0.11 0.06 0.10 0.44 0.44 0.37 0.40 0.40 0.45 0.40 0.37 0.37 0.36 0.27
0.00 0.00 0.00 0.00 0.00 0.00 0.00 0.01 0.00 0.00 0.00 0.00 0.00 0.00 0.00 0.00 0.00 0.00 0.00 0.01 0.01 0.01 0.00 0.00 0.00 0.00 0.01 0.00 0.00 0.00 0.00 0.00 0.00 0.00 0.03 0.02 0.02 0.02 0.01 0.01 0.01 0.01 0.00 0.01 0.01 0.01 0.01 0.02 0.11 0.11 0.10 0.11 0.13 0.13 0.06 0.12 0.12 0.18 0.19 0.20 0.20 0.25 0.24 0.23 0.22 0.22 0.24 0.26 0.29 0.29 0.26 0.24 0.22 0.22 0.07 0.04 0.04 0.05 0.07 0.06 0.06 0.01 0.02 0.10 0.09 0.09 0.09 0.10 0.06 0.06 0.04 0.02 0.15 0.15 0.45 0.42 0.42 0.35 0.38 0.34 0.34 0.33 0.20
-0.00 -0.00 0.00 0.00 0.00 0.00 0.00 0.00 0.00 0.00 0.00 0.00 0.00 0.00 0.00 0.00 0.00 0.00 0.00 0.00 0.00 0.01 0.01 0.01 0.01 0.01 0.03 0.01 0.01 0.01 0.01 0.00 0.02 0.02 0.04 0.03 0.03 0.02 0.01 0.00 0.00 0.00 0.00 0.00 0.01 0.01 0.01 0.02 0.03 0.03 0.03 0.04 0.06 0.06 0.04 0.07 0.07 0.11 0.17 0.27 0.27 0.28 0.25 0.24 0.24 0.24 0.29 0.32 0.25 0.25 0.21 0.25 0.31 0.31 0.30 0.16 0.16 0.25 0.10 0.05 0.05 0.02 0.09 0.11 0.08 0.08 0.05 0.07 0.05 0.05 0.04 0.02 0.08 0.08 0.18 0.28 0.28 0.30 0.30 0.27 0.27 0.31 0.24
0.00 0.00 0.00 0.00 0.00 0.00 0.00 0.00 0.00 0.00 0.00 0.00 0.00 0.00 0.00 0.00 0.00 0.00 0.00 0.00 0.00 0.00 0.04 0.02 0.01 0.01 0.02 0.02 0.01 0.01 0.01 0.01 0.05 0.05 0.05 0.01 0.01 0.01 0.01 0.01 0.01 0.00 0.00 0.00 0.00 0.00 0.01 0.02 0.02 0.02 0.02 0.02 0.02 0.02 0.02 0.03 0.03 0.08 0.15 0.21 0.21 0.30 0.30 0.25 0.26 0.26 0.37 0.33 0.32 0.32 0.25 0.27 0.24 0.24 0.35 0.32 0.32 0.35 0.27 0.14 0.14 0.20 0.16 0.10 0.07 0.07 0.04 0.06 0.05 0.05 0.07 0.02 0.03 0.03 0.08 0.11 0.11 0.31 0.28 0.29 0.29 0.33 0.25
-0.00 -0.00 -0.00 -0.00 0.00 0.00 0.00 0.00 0.01 0.01 0.00 0.00 0.00 0.00 0.01 0.01 0.01 0.00 0.00 0.01 0.01 0.01 0.04 0.04 0.02 0.02 0.02 0.03 0.02 0.02 0.01 0.01 0.04 0.04 0.04 0.01 0.01 0.00 0.01 0.05 0.05 0.03 0.00 0.00 0.00 0.00 0.00 0.00 0.01 0.01 0.01 0.01 0.02 0.02 0.01 0.02 0.02 0.04 0.08 0.11 0.11 0.34 0.35 0.33 0.32 0.32 0.39 0.31 0.30 0.30 0.33 0.26 0.24 0.24 0.23 0.33 0.33 0.42 0.39 0.33 0.33 0.37 0.20 0.12 0.07 0.07 0.08 0.06 0.08 0.08 0.09 0.11 0.06 0.06 0.08 0.07 0.07 0.14 0.21 0.28 0.28 0.37 0.36
0.00 0.00 0.00 0.00 -0.00 -0.00 0.00 0.00 0.00 0.00 0.00 0.01 0.00 0.00 0.00 0.00 0.00 0.00 0.01 0.01 0.01 0.01 0.01 0.05 0.05 0.05 0.03 0.03 0.02 0.02 0.01 0.01 0.01 0.01 0.04 0.02 0.02 0.01 0.01 0.01 0.01 0.03 0.01 0.00 0.00 0.00 0.00 0.00 0.00 0.00 0.00 0.01 0.01 0.01 0.01 0.02 0.02 0.02 0.05 0.05 0.05 0.10 0.33 0.38 0.39 0.39 0.48 0.31 0.25 0.25 0.25 0.25 0.25 0.25 0.23 0.23 0.23 0.23 0.47 0.50 0.50 0.38 0.33 0.19 0.14 0.14 0.20 0.11 0.12 0.12 0.17 0.12 0.14 0.14 0.13 0.05 0.05 0.10 0.15 0.17 0.17 0.32 0.41
0.00 0.00 0.00 0.00 0.00 0.00 0.00 0.00 0.00 0.00 0.01 0.01 0.01 0.01 0.00 0.00 0.00 0.00 0.00 0.00 0.00 0.01 0.02 0.05 0.06 0.06 0.05 0.03 0.01 0.01 0.01 0.01 0.02 0.02 0.02 0.03 0.03 0.02 0.01 0.00 0.00 0.00 0.02 0.02 0.01 0.01 0.00 0.00 0.00 0.00 0.00 0.00 0.00 0.00 0.01 0.01 0.01 0.01 0.03 0.03 0.03 0.04 0.06 0.33 0.43 0.43 0.41 0.42 0.24 0.24 0.25 0.32 0.32 0.32 0.24 0.26 0.26 0.22 0.19 0.33 0.33 0.23 0.29 0.31 0.27 0.27 0.27 0.24 0.21 0.21 0.21 0.18 0.19 0.19 0.20 0.18 0.18 0.08 0.14 0.17 0.17 0.25 0.35
0.00 0.00 0.00 0.00 0.00 0.00 0.00 0.00 0.00 0.00 0.00 0.01 0.01 0.01 0.01 0.01 0.01 0.00 0.00 0.02 0.02 0.04 0.04 0.04 0.06 0.06 0.06 0.04 0.01 0.01 0.00 0.00 0.01 0.01 0.01 0.01 0.01 0.03 0.02 0.00 0.00 0.00 0.01 0.02 0.02 0.02 0.02 0.01 0.00 0.00 0.00 0.00 0.00 0.00 0.00 0.01 0.01 0.01 0.02 0.02 0.02 0.03 0.03 0.05 0.13 0.13 0.25 0.31 0.30 0.30 0.34 0.35 0.33 0.33 0.30 0.25 0.25 0.22 0.18 0.12 0.12 0.14 0.17 0.26 0.33 0.33 0.24 0.24 0.24 0.24 0.14 0.14 0.19 0.19 0.23 0.27 0.27 0.15 0.16 0.19 0.19 0.23 0.26
0.00 0.00 0.00 0.00 0.00 0.00 0.00 0.00 0.00 0.00 0.00 0.01 0.01 0.01 0.01 0.00 0.00 0.01 0.04 0.03 0.03 0.03 0.04 0.04 0.04 0.04 0.06 0.04 0.04 0.04 0.01 0.01 0.01 0.01 0.02 0.01 0.01 0.02 0.02 0.00 0.00 0.00 0.00 0.00 0.01 0.01 0.01 0.01 0.01 0.01 0.01 0.00 0.00 0.00 0.01 0.01 0.01 0.01 0.01 0.02 0.02 0.03 0.04 0.05 0.05 0.05 0.13 0.21 0.23 0.23 0.33 0.27 0.26 0.26 0.26 0.24 0.24 0.19 0.15 0.11 0.11 0.12 0.14 0.16 0.21 0.21 0.14 0.13 0.16 0.16 0.10 0.10 0.13 0.13 0.19 0.30 0.30 0.32 0.23 0.26 0.26 0.21 0.19
0.00 0.00 0.00 0.00 0.00 0.00 0.00 0.00 0.00 0.00 0.00 0.01 0.01 0.01 0.01 0.05 0.05 0.05 0.05 0.05 0.05 0.03 0.02 0.03 0.02 0.02 0.03 0.05 0.06 0.06 0.03 0.01 0.01 0.01 0.02 0.01 0.01 0.01 0.02 0.02 0.02 0.00 0.00 0.00 0.00 0.00 0.00 0.01 0.01 0.01 0.02 0.00 0.00 0.00 0.00 0.01 0.01 0.02 0.02 0.04 0.04 0.03 0.04 0.04 0.04 0.04 0.04 0.11 0.19 0.19 0.16 0.20 0.24 0.24 0.23 0.21 0.21 0.19 0.16 0.14 0.14 0.16 0.14 0.13 0.14 0.14 0.09 0.08 0.08 0.08 0.08 0.07 0.09 0.09 0.15 0.17 0.17 0.27 0.27 0.33 0.33 0.24 0.21
0.00 0.00 0.00 0.00 0.00 0.00 0.00 0.00 0.00 0.00 0.00 0.02 0.02 0.02 0.02 0.06 0.06 0.05 0.04 0.02 0.02 0.02 0.02 0.03 0.03 0.03 0.02 0.02 0.07 0.07 0.06 0.02 0.00 0.00 0.01 0.02 0.02 0.02 0.01 0.01 0.01 0.00 0.00 0.00 0.00 0.00 0.00 0.00 0.01 0.01 0.02 0.00 0.00 0.00 0.01 0.01 0.01 0.03 0.03 0.03 0.03 0.03 0.03 0.03 0.02 0.02 0.02 0.03 0.13 0.13 0.16 0.19 0.23 0.23 0.20 0.18 0.18 0.21 0.20 0.19 0.19 0.19 0.16 0.13 0.12 0.12 0.06 0.05 0.07 0.07 0.08 0.12 0.13 0.13 0.17 0.16 0.16 0.16 0.32 0.34 0.34 0.31 0.19
0.00 0.00 0.00 0.00 0.00 0.00 -0.00 0.00 -0.00 -0.00 -0.00 0.02 0.05 0.05 0.08 0.06 0.06 0.04 0.03 0.02 0.02 0.02 0.03 0.03 0.03 0.03 0.02 0.03 0.06 0.06 0.07 0.02 0.01 0.01 0.01 0.01 0.01 0.02 0.02 0.01 0.01 0.02 0.00 0.00 0.00 0.00 0.00 0.00 0.00 0.00 0.02 0.02 0.01 0.01 0.01 0.02 0.02 0.03 0.04 0.03 0.03 0.03 0.03 0.03 0.03 0.03 0.02 0.02 0.02 0.02 0.10 0.16 0.20 0.20 0.18 0.12 0.12 0.17 0.20 0.21 0.21 0.15 0.14 0.13 0.11 0.11 0.08 0.03 0.05 0.05 0.08 0.13 0.17 0.17 0.19 0.18 0.18 0.16 0.16 0.35 0.35 0.44 0.31
0.00 0.00 0.00 0.00 0.00 0.00 -0.00 -0.00 -0.00 -0.00 0.00 0.02 0.07 0.07 0.06 0.06 0.06 0.04 0.03 0.03 0.03 0.02 0.04 0.02 0.02 0.02 0.03 0.03 0.06 0.06 0.05 0.03 0.01 0.01 0.01 0.01 0.01 0.00 0.01 0.01 0.01 0.01 0.02 0.00 0.00 0.00 0.00 0.00 0.00 0.00 0.00 0.00 0.01 0.01 0.01 0.03 0.03 0.03 0.03 0.04 0.04 0.04 0.04 0.05 0.05 0.05 0.03 0.02 0.02 0.02 0.04 0.10 0.14 0.14 0.15 0.08 0.08 0.08 0.14 0.14 0.14 0.14 0.13 0.11 0.11 0.11 0.09 0.05 0.04 0.04 0.07 0.14 0.17 0.17 0.15 0.16 0.16 0.18 0.16 0.17 0.17 0.25 0.52
0.00 0.00 0.01 0.01 0.01 0.01 0.01 0.00 0.00 0.00 -0.00 0.00 0.03 0.03 0.05 0.06 0.06 0.05 0.05 0.03 0.03 0.04 0.03 0.03 0.03 0.03 0.03 0.04 0.04 0.04 0.04 0.03 0.01 0.01 0.01 0.01 0.01 0.01 0.01 0.01 0.01 0.01 0.01 0.01 0.00 0.00 0.00 0.00 0.00 0.00 0.00 0.00 0.00 0.00 0.00 0.02 0.02 0.04 0.04 0.04 0.04 0.04 0.05 0.06 0.06 0.06 0.05 0.04 0.02 0.02 0.03 0.05 0.07 0.07 0.09 0.04 0.04 0.04 0.08 0.12 0.12 0.15 0.19 0.18 0.12 0.12 0.10 0.08 0.05 0.05 0.06 0.08 0.13 0.13 0.08 0.12 0.12 0.15 0.17 0.19 0.19 0.23 0.34